Regional Weather Roundup
Issued by NWS

Home | Current Version | Previous Version | Graphics & Text | Print | Product List | Glossary On
Versions: 1 2 3 4 5 6 7 8 9 10 11 12 13 14 15 16 17 18 19 20 21 22 23 24 25 26 27 28 29 30 31 32 33 34 35 36 37 38 39 40 41 42 43 44 45 46 47 48 49 50
000
ASUS45 KBOU 181007
RWRCO

WEATHER ROUNDUP FOR COLORADO
NATIONAL WEATHER SERVICE DENVER/BOULDER CO
400 AM MDT FRI AUG 18 2017

NOTE: "FAIR" INDICATES FEW OR NO CLOUDS BELOW 12000 FEET WITH NO
SIGNIFICANT WEATHER AND/OR OBSTRUCTIONS TO VISIBILITY.

COZ001>005-013-030-031-181100-
...NORTHWEST COLORADO...

CITY           SKY/WX    TMP DP  RH WIND       PRES   REMARKS
CRAIG          FAIR      48  41  76 E3        30.27R
HAYDEN         FAIR      54  39  57 E9        30.29S
MEEKER         FAIR      52  40  63 NE8       30.28S
RABBIT EARS PA FAIR      46  32  57 W3        30.53S
STEAMBOAT SPGS FAIR      49  39  68 NW3       30.31S
WALDEN         MOCLDY    41  34  75 SE8       30.38S
$$

COZ006>008-011-181100-
...WEST CENTRAL VALLEYS...

CITY           SKY/WX    TMP DP  RH WIND       PRES   REMARKS
GRAND JUNCTION FAIR      64  39  39 SE10      30.15S
MONTROSE       FAIR      58  38  47 SE8       30.24F
EAGLE          CLOUDY    52  37  56 CALM      30.34S
RIFLE          FAIR      56  38  50 S3        30.23S
DELTA          FAIR      60  39  45 NE7       30.21R
NUCLA          FAIR      55  32  41 SE8       30.27S
$$

COZ017>023-064>068-181100-
...SOUTHWEST COLORADO...

CITY           SKY/WX    TMP DP  RH WIND       PRES   REMARKS
DURANGO        FAIR      48  33  56 E3        30.28F
CORTEZ         FAIR      50  34  54 E5        30.24S
PAGOSA SPRINGS FAIR      46  32  58 CALM      30.36S
TELLURIDE      FAIR      49  32  51 SE8       30.49S
WOLF CREEK PAS FAIR      46  27  46 NW5       30.70S
$$

COZ009-010-012-014-032>034-037-058>063-181100-
...CENTRAL COLORADO...

CITY           SKY/WX    TMP DP  RH WIND       PRES   REMARKS
ASPEN          MOCLDY    51  39  63 VRB3      30.37S
BUENA VISTA    FAIR      45  35  68 CALM      30.40S
COPPER MTN     FAIR      45  30  57 W12       30.64S
BERTHOUD PASS  FAIR      37  34  87 NW21      30.64S
COTTONWOOD PAS FAIR      55  28  35 W10       30.50F
GUNNISON       FAIR      39  34  82 CALM      30.42S
KREMMLING      FAIR      45  37  76 CALM      30.37F
LEADVILLE      MOCLDY    38  31  76 CALM      30.50S
MONARCH PASS   FAIR      45  28  53 W17       30.74F
SALIDA         FAIR      51  38  61 W5        30.45S
SUNLIGHT       FAIR      50  30  46 N5        30.59F
WILKERSON PASS FAIR      46  28  49 NW6       30.62S
$$

COZ069>075-181100-
...SAN LUIS VALLEY/SANGRE DE CRISTO MOUNTAINS...

CITY           SKY/WX    TMP DP  RH WIND       PRES   REMARKS
ALAMOSA        FAIR      42  38  85 NE5       30.35S
DEL NORTE      FAIR      52  35  51 W20       30.38F
LA VETA PASS   NOT AVBL
SAGUACHE       FAIR      48  34  57 NW8       30.38S
$$

COZ035-036-038>040-181100-
...NORTHERN COLORADO FRONT RANGE...

CITY           SKY/WX    TMP DP  RH WIND       PRES   REMARKS
DENVER INTL AP FAIR      59  47  64 NW9       30.18R
DMNS CITY PARK   N/A     59  45  60 N7        30.18S
AURORA         PTCLDY    58  42  56 W5        30.19S
FRONT RANGE AP FAIR      57  45  62 W8        30.18S
ERIE MUNI ARPT FAIR      53  47  79 CALM      30.22S
BOULDER MUN AP FAIR      59  43  55 CALM      30.18R
CENTENNIAL     FAIR      60  40  47 W9        30.20S
BROOMFIELD     NOT AVBL
FORT COLLINS   FAIR      60  47  61 N5        30.18R
LONGMONT       FAIR      55  45  70 NW5       30.18F
$$

COZ041-046-047-076>085-087-088-181100-
...PIKES PEAK/PALMER DIVIDE AND SOUTHERN FOOTHILLS...

CITY           SKY/WX    TMP DP  RH WIND       PRES   REMARKS
COLO. SPRINGS  FAIR      65  39  38 NW12      30.22S
A. F. ACADEMY  FAIR      53  40  61 N5        30.24S
SCHRIEVER AFB  FAIR      65  37  34 NW9       30.21F
CHEYENNE MTN   FAIR      70  30  22 NW15G25   30.21S
ELLICOTT       FAIR       1  32 100 CALM      30.19F
FALCON         FAIR      60  35  38 NW12      30.26S
FORT CARSON    FAIR      55  43  63 N10       30.18S
LIMON          FAIR      53  48  83 W8        30.14F
MONUMENT HILL  FAIR      50  39  66 W9        30.29S
CANON CITY     CLEAR     66  41  39 W17G25    30.16F
WALSENBURG     FAIR      63  39  42 NE6       30.21R
TRINIDAD       FAIR      60  42  51 W18       30.18S
$$

COZ042>045-048>051-090-091-181100-
...NORTHEAST COLORADO...

CITY           SKY/WX    TMP DP  RH WIND       PRES   REMARKS
GREELEY ARPT   FAIR      55  49  80 NW8       30.16S
AKRON          FAIR      57  48  72 N13       30.10R
BURLINGTON     FAIR      58  56  93 SW9       30.06S
WRAY           NOT AVBL
YUMA           FAIR      52  50  93 W6        30.06S
STERLING       FAIR      57  50  77 N9        30.07S
HOLYOKE        FAIR      59  54  82 N9        30.05S
FORT MORGAN    FAIR      58  46  62 N13       30.11S
$$

COZ086-089-092>099-181100-
...SOUTHEAST COLORADO...

CITY           SKY/WX    TMP DP  RH WIND       PRES   REMARKS
PUEBLO         FAIR      59  47  64 W7        30.11F
LA JUNTA       FAIR      60  52  74 W3        30.08S
LAMAR          FAIR      57  54  89 CALM      30.04R
SPRINGFIELD      N/A     63  62  97 SW12      30.08S
$$



USA.gov is the U.S. government's official web portal to all federal, state and local government web resources and services.